Kill Devil Hills, NC

12:47 AM EDT on August 27, 2016 (GMT -0400)
First Flight

Weather History for KFFA - December, 2013

Change the Weather History Date:

Saturday, December 14, 2013

  Actual Average (KMQI) Record (KMQI)
Temperature  
Mean Temperature 48 °F -  
Max Temperature 59 °F 53 °F 72 °F (1991)
Min Temperature 38 °F 40 °F 26 °F (2010)
Degree Days  
Heating Degree Days 16    
Moisture  
Dew Point 41 °F    
Average Humidity 75    
Maximum Humidity 98    
Minimum Humidity 54    
Precipitation  
Precipitation 0.94 in - - ()
Sea Level Pressure  
Sea Level Pressure 30.12 in    
Wind  
Wind Speed 4 mph (SE)    
Max Wind Speed 16 mph    
Max Gust Speed 28 mph    
Visibility 9 miles    
Events Rain    
Averages and records for this station are not official NWS values.
T = Trace of Precipitation, MM = Missing Value Source: NWS Daily Summary

Daily Weather History Graph

Daily Weather History Graph

Search for Another Location

Airport or City:

Trip Planner

Search our weather history database for the weather conditions in past years. The results will help you decide how hot, cold, wet, or windy it might be!

Date:

Astronomy

Dec. 14, 2013 Rise Set
Actual Time 7:05 AM EST 4:49 PM EST
Civil Twilight 6:36 AM EST 5:18 PM EST
Nautical Twilight 6:04 AM EST 5:50 PM EST
Astronomical Twilight 5:33 AM EST 6:21 PM EST
Moon 3:06 PM EST (12/14) 4:27 AM EST (12/14)
Length of Visible Light 10h 41m
Length of Day
9h 44m
Waxing Gibbous, 93% of the Moon is Illuminated
Dec 14
Waxing Gibbous
Dec 17
Full
Dec 25
Last Quarter
Jan 1
New
Jan 7
First Quarter

Hourly Weather History & Observations

Time (EST) Temp. Windchill Dew Point Humidity Pressure Visibility Wind Dir Wind Speed Gust Speed Precip Events Conditions
12:15 AM 39.9 °F - 30.4 °F 69% 30.32 in 10.0 mi Calm Calm - N/A   Clear
12:35 AM 40.1 °F - 30.9 °F 70% 30.32 in 10.0 mi Calm Calm - N/A   Clear
12:55 AM 39.9 °F - 31.5 °F 72% 30.33 in 10.0 mi Calm Calm - N/A   Clear
1:15 AM 39.7 °F - 32.0 °F 74% 30.32 in 10.0 mi Calm Calm - N/A   Clear
1:35 AM 39.6 °F - 32.2 °F 75% 30.31 in 10.0 mi Calm Calm - N/A   Clear
1:55 AM 39.6 °F - 32.2 °F 75% 30.32 in 10.0 mi Calm Calm - N/A   Clear
2:15 AM 39.0 °F - 32.0 °F 76% 30.32 in 10.0 mi Calm Calm - N/A   Clear
2:35 AM 39.0 °F 36.8 °F 31.1 °F 73% 30.33 in 10.0 mi SW 3.5 mph - N/A   Clear
2:55 AM 39.9 °F 37.8 °F 30.2 °F 68% 30.34 in 10.0 mi WSW 3.5 mph - N/A   Clear
3:15 AM 40.1 °F - 30.9 °F 70% 30.34 in 10.0 mi Calm Calm - N/A   Clear
3:35 AM 40.3 °F - 31.5 °F 71% 30.33 in 10.0 mi Calm Calm - N/A   Clear
3:55 AM 39.6 °F - 30.7 °F 71% 30.32 in 10.0 mi Calm Calm - N/A   Clear
4:15 AM 39.4 °F 37.2 °F 30.9 °F 72% 30.33 in 10.0 mi South 3.5 mph - N/A   Clear
4:35 AM 39.2 °F - 30.0 °F 70% 30.31 in 10.0 mi Calm Calm - N/A   Clear
4:55 AM 39.2 °F - 30.4 °F 71% 30.31 in 10.0 mi Calm Calm - N/A   Clear
5:15 AM 39.7 °F - 26.8 °F 60% 30.32 in 10.0 mi Calm Calm - N/A   Clear
5:35 AM 39.6 °F - 27.3 °F 62% 30.32 in 10.0 mi Calm Calm - N/A   Clear
5:55 AM 38.7 °F 36.3 °F 28.6 °F 67% 30.32 in 10.0 mi East 3.5 mph - N/A   Clear
6:15 AM 40.1 °F - 26.4 °F 58% 30.33 in 10.0 mi Calm Calm - N/A   Clear
6:35 AM 40.3 °F 38.2 °F 29.3 °F 65% 30.30 in 10.0 mi East 3.5 mph - N/A   Clear
6:55 AM 41.9 °F - 28.4 °F 59% 30.32 in 10.0 mi Calm Calm - N/A   Scattered Clouds
7:15 AM 42.4 °F - 29.5 °F 60% 30.31 in 10.0 mi Calm Calm - N/A   Scattered Clouds
7:35 AM 43.0 °F 40.3 °F 32.2 °F 66% 30.31 in 10.0 mi East 4.6 mph - N/A   Scattered Clouds
7:55 AM 44.1 °F 42.5 °F 30.7 °F 59% 30.32 in 10.0 mi East 3.5 mph - N/A   Scattered Clouds
8:15 AM 44.8 °F 43.3 °F 29.8 °F 56% 30.33 in 10.0 mi East 3.5 mph - N/A   Mostly Cloudy
8:35 AM 45.1 °F 42.8 °F 29.3 °F 54% 30.33 in 10.0 mi East 4.6 mph - N/A   Overcast
8:55 AM 45.3 °F 43.0 °F 30.6 °F 56% 30.33 in 10.0 mi East 4.6 mph - N/A   Overcast
9:15 AM 46.2 °F 43.3 °F 32.2 °F 58% 30.33 in 10.0 mi East 5.8 mph - N/A   Overcast
9:35 AM 46.4 °F 44.3 °F 33.3 °F 60% 30.32 in 10.0 mi East 4.6 mph - N/A   Overcast
9:55 AM 46.9 °F - 33.8 °F 60% 30.32 in 10.0 mi East 5.8 mph - N/A Rain Light Rain
10:15 AM 47.1 °F - 34.9 °F 62% 30.31 in 10.0 mi East 5.8 mph - N/A   Overcast
10:35 AM 47.7 °F - 35.2 °F 62% 30.31 in 10.0 mi East 4.6 mph - N/A   Overcast
10:55 AM 47.7 °F - 35.6 °F 63% 30.29 in 10.0 mi East 4.6 mph - N/A   Overcast
11:15 AM 47.7 °F - 37.0 °F 67% 30.27 in 10.0 mi East 5.8 mph - N/A   Overcast
11:35 AM 48.2 °F - 38.1 °F 68% 30.25 in 10.0 mi East 5.8 mph - N/A Rain Light Rain
11:55 AM 48.4 °F - 38.1 °F 68% 30.22 in 10.0 mi East 6.9 mph - N/A   Overcast
12:15 PM 48.9 °F - 39.4 °F 70% 30.17 in 10.0 mi East 8.1 mph - N/A   Scattered Clouds
12:35 PM 50.0 °F - 40.8 °F 71% 30.15 in 10.0 mi East 9.2 mph - N/A   Clear
12:55 PM 50.4 °F - 41.9 °F 73% 30.13 in 10.0 mi East 6.9 mph - N/A   Scattered Clouds
1:15 PM 50.9 °F - 43.3 °F 75% 30.12 in 10.0 mi East 8.1 mph - N/A   Overcast
1:35 PM 51.4 °F - 44.4 °F 77% 30.10 in 10.0 mi East 6.9 mph - N/A   Overcast
1:55 PM 52.0 °F - 44.8 °F 76% 30.11 in 10.0 mi ESE 5.8 mph - N/A   Overcast
2:15 PM 52.0 °F - 44.8 °F 76% 30.09 in 10.0 mi ESE 8.1 mph - N/A   Overcast
2:35 PM 52.9 °F - 44.8 °F 74% 30.07 in 10.0 mi ESE 8.1 mph - N/A   Overcast
2:55 PM 53.6 °F - 46.9 °F 78% 30.05 in 10.0 mi SE 8.1 mph - N/A   Light Drizzle
3:15 PM 55.6 °F - 50.5 °F 83% 30.03 in 10.0 mi SE 11.5 mph 17.3 mph N/A   Overcast
3:35 PM 55.9 °F - 51.3 °F 84% 30.01 in 10.0 mi ESE 8.1 mph - N/A   Overcast
3:55 PM 55.0 °F - 50.0 °F 83% 29.98 in 10.0 mi SE 8.1 mph - N/A   Scattered Clouds
4:15 PM 56.5 °F - 48.9 °F 76% 29.96 in 10.0 mi SSE 10.4 mph 17.3 mph N/A   Scattered Clouds
4:35 PM 57.9 °F - 48.2 °F 70% 29.95 in 10.0 mi SSE 12.7 mph 21.9 mph N/A   Mostly Cloudy
4:55 PM 57.4 °F - 48.2 °F 71% 29.94 in 10.0 mi SSE 11.5 mph 21.9 mph N/A   Overcast
5:15 PM 57.4 °F - 49.1 °F 74% 29.92 in 10.0 mi SSE 13.8 mph 23.0 mph N/A   Overcast
5:35 PM 57.4 °F - 49.6 °F 75% 29.92 in 10.0 mi SSE 15.0 mph 23.0 mph N/A   Overcast
5:55 PM 57.9 °F - 50.0 °F 75% 29.91 in 10.0 mi SSE 15.0 mph 24.2 mph N/A   Overcast
6:15 PM 58.3 °F - 50.4 °F 75% 29.90 in 10.0 mi SSE 16.1 mph 26.5 mph N/A   Overcast
6:35 PM 58.3 °F - 50.7 °F 76% 29.88 in 10.0 mi SSE 13.8 mph 26.5 mph N/A   Overcast
6:55 PM 58.3 °F - 51.3 °F 77% 29.87 in 10.0 mi SSE 15.0 mph 26.5 mph N/A   Light Drizzle
7:15 PM 58.5 °F - 52.0 °F 79% 29.87 in 7.0 mi SSE 11.5 mph 21.9 mph N/A Rain Light Rain
7:35 PM 57.9 °F - 54.0 °F 87% 29.87 in 4.0 mi SSE 13.8 mph 24.2 mph 0.02 in Rain Rain
7:55 PM 57.6 °F - 55.2 °F 92% 29.86 in 5.0 mi SSE 13.8 mph 27.6 mph 0.04 in Rain Light Rain
8:15 PM 57.4 °F - 55.4 °F 93% 29.83 in 5.0 mi SSE 11.5 mph 20.7 mph 0.01 in Rain Light Rain
8:35 PM 57.7 °F - 55.8 °F 93% 29.83 in 3.0 mi SSE 11.5 mph 25.3 mph 0.05 in Rain Rain
8:55 PM 58.1 °F - 56.3 °F 94% 29.81 in 3.0 mi South 8.1 mph 18.4 mph 0.11 in Rain Rain
9:15 PM 57.9 °F - 56.7 °F 96% 29.78 in 2.0 mi SSE 10.4 mph 21.9 mph 0.08 in Rain Rain
9:35 PM 58.3 °F - 57.2 °F 96% 29.76 in 3.0 mi SSE 13.8 mph 20.7 mph 0.13 in Rain Rain
9:55 PM 58.3 °F - 57.2 °F 96% 29.74 in 3.0 mi SSE 12.7 mph 24.2 mph 0.16 in Rain Light Rain
10:15 PM 59.0 °F - 57.9 °F 96% 29.72 in 2.5 mi South 11.5 mph 26.5 mph 0.04 in Rain Rain
10:35 PM 58.3 °F - 57.4 °F 97% 29.77 in 0.5 mi SW 10.4 mph 23.0 mph 0.54 in Rain Heavy Rain
10:55 PM 59.2 °F - 58.6 °F 98% 29.75 in 7.0 mi SW 6.9 mph - 0.62 in Rain Rain
11:15 PM 59.2 °F - 58.6 °F 98% 29.73 in 7.0 mi SSW 6.9 mph - 0.01 in Rain Light Rain
11:35 PM 58.8 °F - 58.3 °F 98% 29.74 in 7.0 mi WSW 6.9 mph - 0.01 in   Drizzle
11:55 PM 59.2 °F - 58.6 °F 98% 29.73 in 10.0 mi WSW 8.1 mph - 0.01 in   Light Drizzle